185  
ASUS46 KSTO 252109  
RWRCA  
 
NORTHERN AND CENTRAL CA REGIONAL WEATHER ROUNDUP  
NATIONAL WEATHER SERVICE SACRAMENTO CA  
200 PM PDT SUN AUG 25 2019  
 
NOTE: FAIR INDICATES FEW OR NO CLOUDS BELOW 12,000 FEET WITH NO  
SIGNIFICANT WEATHER AND/OR S TO VISIBILITY
.  
 
CAZ001-003-252200-  
NORTHWEST AREA  
 
CITY SKY/WX TMP DP RH WIND PRES REMARKS
 
CRESCENT CITY SUNNY 61 55 81 SW7 30.03F  
ARCATA NOT AVBL  
SHELTER COVE NOT AVBL  
UKIAH SUNNY 96 52 22 VRB5 29.94F HX 93  

 
 
CAZ006-505>513-252200-  
BAY AREA  
 
CITY SKY/WX TMP DP RH WIND PRES REMARKS
 
SANTA ROSA SUNNY 86 58 38 S9 29.96F  
SAN RAFAEL N/A MM MM MM MISG  
NAPA SUNNY 80 61 52 SW12 29.96F  
CONCORD SUNNY 93 51 23 NW15G22 29.93F HX 90  
OAKLAND CITY N/A 74 MM MM MISG  
OAKLAND MOSUNNY 73 59 61 NW14 29.99S  
SAN FRAN CITY N/A 63 MM 80 MISG  
SAN FRAN ARPT MOSUNNY 72 57 59 NW20G25 29.97F  
LIVERMORE SUNNY 95 50 21 W14 29.94S HX 92  
HAYWARD SUNNY 77 60 55 W14 29.97F  
REDWOOD CITY N/A 76 MM 64 MISG  
MOFFETT ARPT SUNNY 79 63 57 N10 29.97F  
SAN JOSE ARPT SUNNY 82 62 50 N13 29.95F  

 
CAZ034-037-514>518-252200-  
CENTRAL COAST  
 
CITY SKY/WX TMP DP RH WIND PRES REMARKS
 
WATSONVILLE SUNNY 75 59 57 SW10 29.99F  
SALINAS SUNNY 71 58 63 NW16 29.98S  
MONTEREY MOSUNNY 69 57 65 N8 30.01S  
PT PIEDRAS BLS NOT AVBL  
SAN LUIS OBISP SUNNY 78 57 48 NW14 29.97S  
SANTA MARIA SUNNY 74 58 57 NW14 29.99S  

 
CAZ015-016-252200-  
NORTHERN SACRAMENTO VALLEY  
 
CITY SKY/WX TMP DP RH WIND PRES REMARKS
 
REDDING SUNNY 95 54 25 S10 29.92F HX 93  
RED BLUFF SUNNY 95 55 26 S7 29.93F HX 93  
OROVILLE SUNNY 95 59 30 W5 29.94F HX 94  

 
CAZ016>018-252200-  
SOUTHERN SACRAMENTO VALLEY  
 
CITY SKY/WX TMP DP RH WIND PRES REMARKS
 
AUBURN SUNNY 95 54 24 W8 30.01S HX 93  
BEALE AFB SUNNY 98 56 24 SW6 29.91F HX 96  
LINCOLN FAIR 95 57 28 W7 29.92F HX 94  
MARYSVILLE LGT RAIN 98 56 24 VRB5 29.92F HX 96  
PLACERVILLE FAIR 91 50 24 W7 30.09S  
SAC INTL ARPT SUNNY 94 57 28 CALM 29.91F HX 92  
MATHER AIRPORT SUNNY 97 55 24 NW7G13 29.91F HX 95  
DOWNTOWN SAC N/A 99 MM MM MISG  
SAC EXEC ARPT SUNNY 97 57 26 MISG 29.91F HX 96  
VACAVILLE SUNNY 99 57 24 SE6 29.93F HX 98  
TRAVIS AFB SUNNY 97 55 24 SW14 29.92F HX 95  

 
CAZ019>021-252200-  
SAN JOAQUIN VALLEY  
 
CITY SKY/WX TMP DP RH WIND PRES REMARKS
 
STOCKTON SUNNY 98 54 22 W8 29.91F HX 96  
MODESTO SUNNY 97 58 27 N6 29.90F HX 96  
MERCED SUNNY 98 61 29 SW7 29.90F HX 98  
LEMOORE SUNNY 100 58 24 NE8 29.92F HX 99  
FRESNO SUNNY 99 54 22 W5 29.92F HX 97  
HANFORD SUNNY 97 57 26 VRB6 29.92F HX 96  
PORTERVILLE N/A N/A N/A N/A MISG N/A  
BAKERSFIELD SUNNY 97 55 24 W10 29.93F HX 95  

 
CAZ011-012-071-252200-  
NORTHERN MOUNTAINS  
 
CITY SKY/WX TMP DP RH WIND PRES REMARKS
 
YREKA SUNNY 89 38 16 VRB5 30.07F  
MOUNT SHASTA SUNNY 87 47 24 CALM 30.11F  
ALTURAS SUNNY 86 39 19 SW8G20 30.14F  

 
CAZ011-012-071-252200-  
SIERRA NEVADA MTNS  
 
CITY SKY/WX TMP DP RH WIND PRES REMARKS
 
BLUE CANYON SUNNY 79 47 32 W9 30.28F  
TRUCKEE SUNNY 82 43 24 W13 30.28F  
TAHOE VLY ARPT SUNNY 81 42 25 S13G21 30.29F  
MAMMOTH LAKES FAIR 86 37 17 E9 30.31F  

 
 
 
CLICK HERE TO GO TO PREVIOUS BULLETINS.

The Nexlab CA Page Main Text Page